Location: Casteau
(50.5142°N, 4.0161°E)
Time: 10:36:17
(UTC+00:00)

Courier 1B Rocket - All Passes

Search period start: 03 August 2021 00:00
Search period end: 13 August 2021 00:00
Orbit: 920 x 1202 km, 28.2° (Epoch: 02 August)

Date Brightness Start Highest point End Pass type
(mag) Time Alt. Az. Time Alt. Az. Time Alt. Az.
07 Aug - 00:54:17 10° S 00:54:55 10° S 00:55:32 10° S night (unlit)
07 Aug - 23:53:09 10° S 23:54:17 10° S 23:55:24 10° SSE night (unlit)
09 Aug - 00:44:54 10° SSW 00:45:35 10° S 00:46:16 10° S night (unlit)
09 Aug - 23:43:00 10° SSW 23:44:57 11° S 23:46:52 10° SSE night (unlit)
10 Aug - 22:42:06 10° SSW 22:44:16 11° S 22:46:24 10° SSE night (unlit)
11 Aug - 21:41:52 10° S 21:43:34 11° S 21:45:15 10° SSE visible
11 Aug - 23:33:40 10° SSW 23:35:35 11° S 23:37:28 10° S night (unlit)
12 Aug - 22:32:15 10° SSW 22:34:53 12° S 22:37:29 10° SSE visible
